Location: Mentone
(34.5413°N, 85.5351°W)
Time: 18:31:56
(UTC-05:00)

UOSAT-12 - Visible Passes

Search period start: 29 August 2015 00:00
Search period end: 08 September 2015 00:00
Orbit: 602 x 653 km, 64.6° (Epoch: 29 August)

Date Brightness Start Highest point End Pass type
(mag) Time Alt. Az. Time Alt. Az. Time Alt. Az.
29 Aug 9.1 03:14:50 26° NNE 03:14:50 26° NNE 03:16:55 10° NNE visible
30 Aug 9.2 03:34:32 21° N 03:34:32 21° N 03:36:34 10° N visible
31 Aug 10.4 02:16:53 10° NE 02:16:53 10° NE 02:16:55 10° NE visible
31 Aug 9.5 03:54:12 14° NNW 03:54:12 14° NNW 03:55:31 10° NNW visible
01 Sep 10.1 02:36:30 13° NNE 02:36:30 13° NNE 02:36:57 10° NNE visible
02 Sep 10.0 02:56:05 12° N 02:56:05 12° N 02:56:29 10° N visible
